Details From CYPX - Puvirnituq
To CYYQ - Churchill
Flight Number -
Tags Standard
Created
Modified
Stats Distance 522 nm / 967 km
Max Altitude 35,000 ft / 10,668 m
Waypoints 5
Social Downloads 33
Likes 0
Share

Download

Looking for another format? Having issues loading an existing format? Contact us
Advertisement - Login to hide

Notes

None

Route

CYPX MIBNA VIMSA YYQ CYYQ

ID Type Via Altitude (ft/m) Position (lat/lon) Dist (leg/tot) Name
O CYPX APT - 74 / 23 60.05042 / -77.28694 - / 0 nm PUVIRNITUQ
MIBNA FIX - 35,000 / 10,668 60.08333 / -80.00000 81 / 81 nm
VIMSA FIX - 35,000 / 10,668 59.16667 / -90.00000 308 / 389 nm
YYQ VOR - 1,427 / 435 58.74167 / -94.13528 130 / 520 nm CHURCHILL VOR-DME
O CYYQ APT - 94 / 29 58.73450 / -94.06657 2 / 522 nm

Altitude Profile

Advertisement - Login to hide

Weather


0- 5 10 15 20 25 30 35+ Temperature / °C

Clouds and Precipitation
Forecast for 2021-09-27 12:00 UTC. Updated 3 hours ago

Ground ~20,000 ft ~40,000 ft Winds

CYPX

Details ICAO CYPX (YPX)
Name PUVIRNITUQ
Region Canada
Timezone America/Montreal (UTC-4.0)
Stats Elevation 74 ft / 23 m (AMSL)
Location 60.050400° -77.286900°
Runways 1
Magnetic Variation 18.990° W

METAR

CYPX 271232Z AUTO 07016G22KT 9SM -RA BKN012 BKN044 OVC071 08/07 A2954 RMK SLP006

Decode

TAF

TAF CYPX 271146Z 2712/2724 07012KT P6SM -RA FEW012 OVC070 TEMPO 2712/2716 3SM -RA BR OVC008 BECMG 2714/2716 08022G32KT FM271600 07022G32KT 6SM -RA BR OVC015 TEMPO 2716/2724 2SM -RA BR OVC005 RMK FCST BASED ON AUTO OBS. NXT FCST BY 271800Z

Decode

Departure Runways

ID Width Length Bearing (true/mag) Surface Threshold Overrun Markings Lighting
01 100 ft / 30 m 4,971 ft / 1,515 m 343.44° / 2.43° GRAVEL 0 ft / 0 m 0 ft / 0 m VISUAL EDGE THRESHOLD REIL-OMNI
19 100 ft / 30 m 4,971 ft / 1,515 m 163.44° / 182.43° GRAVEL 0 ft / 0 m 0 ft / 0 m VISUAL EDGE THRESHOLD TDZ REIL-OMNI

CYYQ

Details ICAO CYYQ (YYQ)
Name CHURCHILL
Region Canada
Timezone America/Winnipeg (UTC-5.0)
Stats Elevation 94 ft / 29 m (AMSL)
Location 58.744000° -94.063900°
Runways 2
Magnetic Variation 2.040° W

METAR

CYYQ 271200Z 30005KT 15SM FEW050 04/03 A2983 RMK SC1 SC TR SLP103

Decode

TAF

TAF CYYQ 271138Z 2712/2812 29005KT P6SM SKC FM271500 33010KT P6SM SCT150 BKN250 FM272100 35008KT P6SM FEW060 BKN150 OVC250 BECMG 2722/2724 VRB03KT FM280300 18005KT P6SM SCT020 BKN080 OVC140 TEMPO 2805/2812 P6SM -SHRA BKN020 OVC080 RMK NXT FCST BY 271800Z

Decode

Destination Runways

ID Width Length Bearing (true/mag) Surface Threshold Overrun Markings Lighting
07 100 ft / 30 m 3,988 ft / 1,215 m 70.97° / 73.01° GRAVEL 0 ft / 0 m 0 ft / 0 m VISUAL EDGE THRESHOLD
15 160 ft / 49 m 9,178 ft / 2,797 m 152.64° / 154.68° ASPHALT 0 ft / 0 m 0 ft / 0 m APP EDGE THRESHOLD REIL-OMNI
25 100 ft / 30 m 3,988 ft / 1,215 m 250.99° / 253.03° GRAVEL 0 ft / 0 m 0 ft / 0 m VISUAL EDGE THRESHOLD REIL-OMNI
33 160 ft / 49 m 9,178 ft / 2,797 m 332.66° / 334.70° ASPHALT 0 ft / 0 m 0 ft / 0 m APP EDGE THRESHOLD SSALR

Popular Alternatives